| time (UTC) | temp F | wind direction | speed knots | gust knots | rain 1hr in | rain 24hr in | rain mn in | humidity % | barometer mb |
| 20260510150118 | 85 | 193 | 0.9 | 1.7 | 0.00 | 0.00 | 0.00 | 100 | 1018.2 |
| 20260510144547 | 84 | 241 | 1.7 | 6.1 | 0.00 | 0.01 | 0.00 | 100 | 1018.2 |
| 20260510143043 | 83 | 211 | 2.6 | 6.1 | 0.00 | 0.01 | 0.00 | 100 | 1018.1 |
| 20260510141542 | 83 | 171 | 0.9 | 3.5 | 0.00 | 0.01 | 0.00 | 100 | 1017.9 |
| 20260510140038 | 82 | 201 | 0.9 | 6.1 | 0.00 | 0.01 | 0.00 | 100 | 1017.9 |
| 20260510134536 | 81 | 196 | 1.7 | 5.2 | 0.00 | 0.01 | 0.00 | 100 | 1017.8 |
| 20260510133030 | 79 | 194 | 0.9 | 5.2 | 0.00 | 0.01 | 0.00 | 100 | 1017.7 |
| 20260510131526 | 77 | 161 | 2.6 | 7.0 | 0.00 | 0.01 | 0.00 | 100 | 1017.6 |
| 20260510130023 | 75 | 276 | 0.9 | 5.2 | 0.00 | 0.01 | 0.00 | 100 | 1017.7 |
| 20260510124526 | 73 | 194 | 0.9 | 2.6 | 0.00 | 0.01 | 0.00 | 100 | 1017.6 |
| 20260510123013 | 71 | 12 | 0.0 | 0.9 | 0.00 | 0.01 | 0.00 | 100 | 1017.4 |
| 20260510121510 | 70 | 59 | 0.0 | 0.9 | 0.00 | 0.01 | 0.00 | 100 | 1017.3 |
| 20260510120018 | 70 | 52 | 0.0 | 0.0 | 0.00 | 0.01 | 0.00 | 100 | 1017.1 |
| 20260510114514 | 68 | 51 | 0.0 | 0.9 | 0.00 | 0.01 | 0.00 | 100 | 1016.8 |
| 20260510113005 | 66 | 58 | 0.0 | 0.0 | 0.00 | 0.01 | 0.00 | 100 | 1016.5 |
| 20260510111504 | 66 | 125 | 0.0 | 0.0 | 0.00 | 0.01 | 0.00 | 100 | 1016.2 |
| 20260510110007 | 66 | 119 | 0.0 | 0.0 | 0.00 | 0.01 | 0.00 | 100 | 1016.3 |
| 20260510104503 | 66 | 55 | 0.0 | 0.0 | 0.00 | 0.01 | 0.00 | 100 | 1016.0 |
| 20260510103001 | 66 | 58 | 0.0 | 0.0 | 0.00 | 0.01 | 0.00 | 100 | 1015.6 |
| 20260510101601 | 67 | 61 | 0.0 | 0.0 | 0.00 | 0.01 | 0.00 | 100 | 1015.6 |
| 20260510094612 | 67 | 69 | 0.0 | 0.0 | 0.00 | 0.01 | 0.00 | 100 | 1015.4 |
| 20260510093119 | 69 | 72 | 0.0 | 0.0 | 0.00 | 0.01 | 0.00 | 100 | 1015.2 |
| 20260510091556 | 68 | 60 | 0.9 | 1.7 | 0.00 | 0.01 | 0.00 | 100 | 1014.9 |
| 20260510090054 | 68 | 57 | 0.0 | 0.0 | 0.00 | 0.01 | 0.00 | 100 | 1014.7 |
| 20260510084552 | 68 | 57 | 0.0 | 0.0 | 0.00 | 0.01 | 0.00 | 100 | 1014.5 |
| 20260510083104 | 69 | 57 | 0.0 | 0.9 | 0.00 | 0.01 | 0.00 | 100 | 1014.5 |
| 20260510081550 | 69 | 58 | 0.0 | 0.9 | 0.00 | 0.01 | 0.00 | 100 | 1014.5 |
| 20260510080053 | 70 | 58 | 0.0 | 0.9 | 0.00 | 0.01 | 0.00 | 100 | 1014.5 |
| 20260510074550 | 70 | 59 | 0.0 | 0.9 | 0.00 | 0.01 | 0.00 | 100 | 1014.5 |
| 20260510073054 | 70 | 61 | 0.0 | 0.9 | 0.00 | 0.01 | 0.00 | 100 | 1014.6 |
| 20260510071548 | 70 | 60 | 0.0 | 0.9 | 0.00 | 0.01 | 0.00 | 100 | 1014.4 |
| 20260510070047 | 70 | 61 | 0.0 | 1.7 | 0.00 | 0.01 | 0.00 | 100 | 1014.6 |
| 20260510064551 | 70 | 59 | 0.0 | 0.9 | 0.00 | 0.01 | 0.00 | 100 | 1014.7 |
| 20260510063044 | 70 | 60 | 0.0 | 0.0 | 0.00 | 0.01 | 0.00 | 100 | 1014.8 |
| 20260510061543 | 69 | 55 | 0.0 | 0.0 | 0.00 | 0.01 | 0.00 | 100 | 1014.9 |
| 20260510060044 | 69 | 54 | 0.0 | 0.0 | 0.00 | 0.01 | 0.00 | 100 | 1014.9 |
| 20260510054541 | 69 | 54 | 0.0 | 0.0 | 0.00 | 0.01 | 0.00 | 100 | 1015.3 |
| 20260510053036 | 69 | 54 | 0.0 | 0.0 | 0.00 | 0.01 | 0.00 | 100 | 1015.6 |
| 20260510051536 | 69 | 58 | 0.0 | 0.0 | 0.00 | 0.01 | 0.00 | 100 | 1015.9 |
| 20260510050038 | 68 | 67 | 0.0 | 0.0 | 0.00 | 0.01 | 0.00 | 100 | 1016.0 |
| 20260510044530 | 69 | 66 | 0.0 | 0.0 | 0.00 | 0.01 | 0.00 | 100 | 1016.3 |
| 20260510043029 | 69 | 65 | 0.0 | 0.0 | 0.00 | 0.01 | 0.00 | 100 | 1016.4 |
| 20260510041525 | 70 | 66 | 0.0 | 0.0 | 0.00 | 0.01 | 0.00 | 100 | 1016.5 |
| 20260510040022 | 70 | 64 | 0.0 | 0.0 | 0.00 | 0.01 | 0.01 | 100 | 1016.6 |
| 20260510034524 | 70 | 65 | 0.0 | 0.0 | 0.00 | 0.01 | 0.01 | 100 | 1016.6 |
| 20260510033021 | 70 | 65 | 0.0 | 0.0 | 0.00 | 0.01 | 0.01 | 100 | 1016.6 |
| 20260510031521 | 69 | 65 | 0.0 | 0.0 | 0.00 | 0.01 | 0.01 | 100 | 1016.6 |
| 20260510030023 | 70 | 56 | 0.0 | 0.0 | 0.00 | 0.01 | 0.01 | 100 | 1016.6 |
| 20260510024520 | 70 | 56 | 0.0 | 0.0 | 0.00 | 0.01 | 0.01 | 100 | 1016.6 |
| 20260510023019 | 70 | 56 | 0.0 | 0.0 | 0.00 | 0.01 | 0.01 | 100 | 1016.4 |
| 20260510021520 | 70 | 59 | 0.0 | 0.0 | 0.00 | 0.01 | 0.01 | 100 | 1016.0 |
| 20260510020018 | 71 | 36 | 0.0 | 0.0 | 0.00 | 0.01 | 0.01 | 100 | 1016.0 |
| 20260510014517 | 71 | 35 | 0.0 | 0.0 | 0.00 | 0.01 | 0.01 | 100 | 1015.8 |
| 20260510013016 | 71 | 34 | 0.0 | 0.0 | 0.00 | 0.01 | 0.01 | 100 | 1015.8 |
| 20260510011517 | 71 | 35 | 0.0 | 0.0 | 0.00 | 0.01 | 0.01 | 100 | 1015.5 |
| 20260510010016 | 72 | 40 | 0.0 | 0.0 | 0.00 | 0.01 | 0.01 | 100 | 1015.3 |
| 20260510004515 | 72 | 40 | 0.0 | 1.7 | 0.00 | 0.01 | 0.01 | 100 | 1015.1 |
| 20260510003023 | 72 | 41 | 0.9 | 2.6 | 0.00 | 0.01 | 0.01 | 100 | 1014.8 |
| 20260510001518 | 73 | 33 | 0.0 | 2.6 | 0.00 | 0.01 | 0.01 | 100 | 1015.0 |
| 20260510000014 | 73 | 28 | 0.9 | 2.6 | 0.00 | 0.01 | 0.01 | 100 | 1015.2 |
| 20260509234524 | 74 | 40 | 0.9 | 4.3 | 0.00 | 0.01 | 0.01 | 100 | 1015.0 |
| 20260509233012 | 74 | 25 | 0.9 | 3.5 | 0.00 | 0.01 | 0.01 | 100 | 1014.9 |
| 20260509231514 | 75 | 24 | 0.9 | 2.6 | 0.00 | 0.01 | 0.01 | 100 | 1014.9 |
| 20260509230012 | 75 | 51 | 0.9 | 7.8 | 0.00 | 0.01 | 0.01 | 100 | 1015.2 |
| 20260509224511 | 75 | 42 | 0.9 | 5.2 | 0.00 | 0.01 | 0.01 | 100 | 1015.3 |
| 20260509223011 | 76 | 350 | 0.9 | 2.6 | 0.00 | 0.01 | 0.01 | 100 | 1015.3 |
| 20260509221511 | 77 | 19 | 0.9 | 3.5 | 0.00 | 0.01 | 0.01 | 100 | 1014.9 |
| 20260509220021 | 78 | 39 | 0.9 | 3.5 | 0.00 | 0.01 | 0.01 | 100 | 1014.8 |
| 20260509214509 | 80 | 307 | 0.9 | 2.6 | 0.00 | 0.01 | 0.01 | 100 | 1014.6 |
| 20260509213009 | 82 | 26 | 0.0 | 2.6 | 0.00 | 0.01 | 0.01 | 100 | 1014.0 |
| 20260509211508 | 83 | 286 | 0.0 | 2.6 | 0.00 | 0.01 | 0.01 | 100 | 1014.0 |
| 20260509210007 | 83 | 315 | 0.0 | 2.6 | 0.00 | 0.01 | 0.01 | 100 | 1013.8 |
| 20260509204506 | 83 | 338 | 0.0 | 2.6 | 0.00 | 0.01 | 0.01 | 100 | 1013.8 |
| 20260509203009 | 83 | 143 | 0.9 | 2.6 | 0.00 | 0.01 | 0.01 | 100 | 1014.0 |
| 20260509201504 | 83 | 244 | 0.9 | 1.7 | 0.00 | 0.01 | 0.01 | 100 | 1013.9 |
| 20260509200005 | 83 | 217 | 0.9 | 4.3 | 0.00 | 0.01 | 0.01 | 100 | 1014.0 |
| 20260509194502 | 83 | 292 | 0.9 | 3.5 | 0.00 | 0.01 | 0.01 | 100 | 1014.2 |
| 20260509193001 | 84 | 241 | 1.7 | 2.6 | 0.00 | 0.01 | 0.01 | 100 | 1013.9 |
| 20260509191501 | 84 | 290 | 0.9 | 3.5 | 0.00 | 0.01 | 0.01 | 100 | 1014.0 |
| 20260509190100 | 85 | 265 | 1.7 | 3.5 | 0.00 | 0.01 | 0.01 | 100 | 1014.3 |
| 20260509184601 | 85 | 267 | 1.7 | 5.2 | 0.00 | 0.01 | 0.01 | 100 | 1014.1 |
| 20260509183103 | 85 | 176 | 1.7 | 3.5 | 0.00 | 0.01 | 0.01 | 100 | 1014.0 |
| 20260509181602 | 84 | 234 | 0.9 | 3.5 | 0.00 | 0.01 | 0.01 | 100 | 1014.2 |
| 20260509174558 | 85 | 280 | 1.7 | 3.5 | 0.00 | 0.01 | 0.01 | 100 | 1014.7 |
| 20260509173056 | 88 | 281 | 1.7 | 3.5 | 0.00 | 0.01 | 0.01 | 100 | 1014.6 |
| 20260509171552 | 89 | 266 | 1.7 | 5.2 | 0.00 | 0.01 | 0.01 | 100 | 1014.5 |
| 20260509170051 | 88 | 300 | 1.7 | 3.5 | 0.00 | 0.01 | 0.01 | 100 | 1014.8 |
| 20260509164544 | 86 | 179 | 0.9 | 3.5 | 0.00 | 0.01 | 0.01 | 100 | 1015.2 |
| 20260509163037 | 85 | 180 | 1.7 | 5.2 | 0.00 | 0.01 | 0.01 | 100 | 1015.2 |
| 20260509161535 | 84 | 213 | 0.9 | 3.5 | 0.00 | 0.01 | 0.01 | 100 | 1015.2 |
| 20260509160036 | 83 | 202 | 0.9 | 5.2 | 0.00 | 0.01 | 0.01 | 100 | 1015.1 |
| 20260509154528 | 82 | 163 | 1.7 | 5.2 | 0.00 | 0.01 | 0.01 | 100 | 1014.8 |
| 20260509153035 | 81 | 137 | 1.7 | 4.3 | 0.01 | 0.01 | 0.01 | 100 | 1014.9 |
| 20260509151522 | 79 | 178 | 0.9 | 6.1 | 0.01 | 0.01 | 0.01 | 100 | 1015.0 |